| time (UTC) | temp F | wind direction | speed MPH | gust MPH | rain 1hr in | rain 24hr in | rain mn in | humidity % | barometer mb |
| 20260905130033 | 55 | 186 | 0.0 | 3.0 | 0.00 | 0.00 | 0.00 | 94 | 1019.1 |
| 20260905124537 | 55 | 92 | 1.0 | 2.0 | 0.00 | 0.00 | 0.00 | 94 | 1019.1 |
| 20260905123024 | 56 | 92 | 0.0 | 2.0 | 0.00 | 0.00 | 0.00 | 94 | 1018.9 |
| 20260905121530 | 56 | 91 | 0.0 | 0.0 | 0.00 | 0.00 | 0.00 | 94 | 1018.9 |
| 20260905120022 | 56 | 91 | 0.0 | 0.0 | 0.00 | 0.00 | 0.00 | 93 | 1018.8 |
| 20260905114536 | 56 | 91 | 0.0 | 0.0 | 0.00 | 0.00 | 0.00 | 93 | 1018.9 |
| 20260905113021 | 56 | 91 | 0.0 | 0.0 | 0.00 | 0.00 | 0.00 | 93 | 1018.8 |
| 20260905111524 | 56 | 92 | 0.0 | 1.0 | 0.00 | 0.00 | 0.00 | 93 | 1018.7 |
| 20260905110020 | 56 | 92 | 1.0 | 3.0 | 0.00 | 0.00 | 0.00 | 93 | 1018.7 |
| 20260905104520 | 56 | 54 | 0.0 | 0.0 | 0.00 | 0.00 | 0.00 | 93 | 1018.8 |
| 20260905103028 | 56 | 53 | 0.0 | 2.0 | 0.00 | 0.00 | 0.00 | 93 | 1018.8 |
| 20260905101526 | 56 | 52 | 0.0 | 0.0 | 0.00 | 0.00 | 0.00 | 93 | 1018.6 |
| 20260905100016 | 56 | 52 | 0.0 | 2.0 | 0.00 | 0.00 | 0.00 | 92 | 1018.6 |
| 20260905094515 | 57 | 50 | 0.0 | 0.0 | 0.00 | 0.00 | 0.00 | 93 | 1018.6 |
| 20260905093014 | 57 | 51 | 0.0 | 3.0 | 0.00 | 0.00 | 0.00 | 93 | 1018.6 |
| 20260905091513 | 57 | 75 | 2.0 | 4.0 | 0.00 | 0.00 | 0.00 | 93 | 1018.5 |
| 20260905090011 | 57 | 80 | 0.0 | 3.0 | 0.00 | 0.00 | 0.00 | 93 | 1018.3 |
| 20260905084530 | 57 | 94 | 1.0 | 5.0 | 0.00 | 0.00 | 0.00 | 93 | 1018.3 |
| 20260905083016 | 56 | 63 | 0.0 | 0.0 | 0.00 | 0.00 | 0.00 | 92 | 1018.2 |
| 20260905081508 | 56 | 59 | 0.0 | 0.0 | 0.00 | 0.00 | 0.00 | 92 | 1018.3 |
| 20260905080006 | 56 | 58 | 0.0 | 2.0 | 0.00 | 0.00 | 0.00 | 92 | 1018.2 |
| 20260905074505 | 57 | 58 | 0.0 | 3.0 | 0.00 | 0.00 | 0.00 | 91 | 1018.3 |
| 20260905073013 | 57 | 49 | 0.0 | 4.0 | 0.00 | 0.00 | 0.00 | 91 | 1018.2 |
| 20260905071502 | 57 | 47 | 1.0 | 3.0 | 0.00 | 0.00 | 0.00 | 91 | 1018.1 |
| 20260905070002 | 57 | 46 | 1.0 | 3.0 | 0.00 | 0.00 | 0.00 | 91 | 1018.1 |
| 20260905064559 | 57 | 59 | 2.0 | 3.0 | 0.00 | 0.00 | 0.00 | 90 | 1017.9 |
| 20260905063101 | 57 | 53 | 0.0 | 3.0 | 0.00 | 0.00 | 0.00 | 89 | 1017.8 |
| 20260905061617 | 57 | 49 | 3.0 | 7.0 | 0.00 | 0.00 | 0.00 | 89 | 1017.8 |
| 20260905060058 | 57 | 30 | 3.0 | 6.0 | 0.00 | 0.00 | 0.00 | 89 | 1017.8 |
| 20260905054600 | 57 | 40 | 2.0 | 6.0 | 0.00 | 0.00 | 0.00 | 89 | 1017.7 |
| 20260905053110 | 57 | 38 | 1.0 | 4.0 | 0.00 | 0.00 | 0.00 | 88 | 1017.7 |
| 20260905051556 | 56 | 31 | 2.0 | 4.0 | 0.00 | 0.00 | 0.00 | 87 | 1017.8 |
| 20260905050056 | 57 | 20 | 2.0 | 5.0 | 0.00 | 0.00 | 0.00 | 87 | 1017.8 |
| 20260905044556 | 57 | 42 | 1.0 | 4.0 | 0.00 | 0.00 | 0.00 | 86 | 1017.7 |
| 20260905043057 | 57 | 63 | 0.0 | 0.0 | 0.00 | 0.00 | 0.00 | 85 | 1017.8 |
| 20260905041554 | 57 | 117 | 0.0 | 2.0 | 0.00 | 0.00 | 0.00 | 85 | 1017.7 |
| 20260905040054 | 58 | 117 | 0.0 | 5.0 | 0.00 | 0.00 | 0.00 | 83 | 1017.9 |
| 20260905034552 | 58 | 31 | 1.0 | 4.0 | 0.00 | 0.00 | 0.00 | 83 | 1017.7 |
| 20260905033055 | 58 | 55 | 1.0 | 4.0 | 0.00 | 0.00 | 0.00 | 84 | 1017.4 |
| 20260905031553 | 58 | 58 | 2.0 | 5.0 | 0.00 | 0.00 | 0.00 | 83 | 1017.2 |
| 20260905030049 | 58 | 350 | 1.0 | 4.0 | 0.00 | 0.00 | 0.00 | 83 | 1016.9 |
| 20260905024613 | 58 | 27 | 1.0 | 4.0 | 0.00 | 0.00 | 0.00 | 83 | 1016.9 |
| 20260905023045 | 58 | 15 | 2.0 | 4.0 | 0.00 | 0.00 | 0.00 | 83 | 1016.8 |
| 20260905021545 | 58 | 44 | 1.0 | 5.0 | 0.00 | 0.00 | 0.00 | 83 | 1016.7 |
| 20260905020049 | 58 | 38 | 2.0 | 7.0 | 0.00 | 0.00 | 0.00 | 85 | 1016.6 |
| 20260905014544 | 58 | 342 | 2.0 | 7.0 | 0.00 | 0.00 | 0.00 | 85 | 1016.6 |
| 20260905013041 | 59 | 34 | 3.0 | 7.0 | 0.00 | 0.00 | 0.00 | 84 | 1016.5 |
| 20260905011551 | 59 | 342 | 3.0 | 7.0 | 0.00 | 0.00 | 0.00 | 83 | 1016.4 |
| 20260905010038 | 59 | 332 | 2.0 | 8.0 | 0.00 | 0.00 | 0.00 | 84 | 1016.3 |
| 20260905004548 | 59 | 22 | 2.0 | 8.0 | 0.00 | 0.00 | 0.00 | 85 | 1016.1 |
| 20260905003036 | 58 | 355 | 3.0 | 8.0 | 0.00 | 0.00 | 0.00 | 86 | 1016.0 |
| 20260905001535 | 59 | 25 | 2.0 | 7.0 | 0.00 | 0.00 | 0.00 | 86 | 1015.9 |
| 20260905000034 | 59 | 331 | 4.0 | 9.0 | 0.00 | 0.00 | 0.00 | 85 | 1015.8 |
| 20260904234542 | 59 | 340 | 4.0 | 8.0 | 0.00 | 0.00 | 0.00 | 86 | 1015.8 |
| 20260904233051 | 59 | 360 | 2.0 | 7.0 | 0.00 | 0.00 | 0.00 | 86 | 1015.6 |
| 20260904231531 | 59 | 309 | 3.0 | 6.0 | 0.00 | 0.00 | 0.00 | 84 | 1015.7 |
| 20260904230034 | 59 | 28 | 5.0 | 11.0 | 0.00 | 0.00 | 0.00 | 84 | 1015.6 |
| 20260904224540 | 60 | 349 | 3.0 | 10.0 | 0.00 | 0.00 | 0.00 | 83 | 1015.6 |
| 20260904223040 | 60 | 5 | 3.0 | 11.0 | 0.00 | 0.00 | 0.00 | 83 | 1015.6 |
| 20260904221530 | 60 | 16 | 3.0 | 7.0 | 0.00 | 0.00 | 0.00 | 82 | 1015.6 |
| 20260904220029 | 61 | 67 | 3.0 | 9.0 | 0.00 | 0.00 | 0.00 | 82 | 1015.6 |
| 20260904214539 | 60 | 331 | 4.0 | 12.0 | 0.00 | 0.00 | 0.00 | 82 | 1015.6 |
| 20260904213028 | 60 | 348 | 4.0 | 11.0 | 0.00 | 0.00 | 0.00 | 81 | 1015.7 |
| 20260904211527 | 60 | 66 | 4.0 | 8.0 | 0.00 | 0.00 | 0.00 | 80 | 1015.7 |
| 20260904210025 | 61 | 333 | 3.0 | 9.0 | 0.00 | 0.00 | 0.00 | 80 | 1015.8 |
| 20260904204524 | 61 | 336 | 4.0 | 7.0 | 0.00 | 0.00 | 0.00 | 80 | 1015.6 |
| 20260904203023 | 62 | 349 | 2.0 | 8.0 | 0.00 | 0.00 | 0.00 | 80 | 1015.5 |
| 20260904201520 | 61 | 29 | 4.0 | 8.0 | 0.00 | 0.00 | 0.00 | 80 | 1015.5 |
| 20260904200027 | 60 | 42 | 2.0 | 5.0 | 0.00 | 0.00 | 0.00 | 81 | 1015.4 |
| 20260904194518 | 60 | 28 | 3.0 | 8.0 | 0.00 | 0.00 | 0.00 | 80 | 1015.6 |
| 20260904193016 | 61 | 46 | 4.0 | 7.0 | 0.00 | 0.00 | 0.00 | 81 | 1015.6 |
| 20260904191518 | 59 | 44 | 3.0 | 4.0 | 0.00 | 0.00 | 0.00 | 84 | 1015.8 |
| 20260904190012 | 58 | 45 | 0.0 | 4.0 | 0.00 | 0.00 | 0.00 | 87 | 1015.7 |
| 20260904184518 | 58 | 335 | 0.0 | 5.0 | 0.00 | 0.00 | 0.00 | 87 | 1015.7 |
| 20260904183008 | 59 | 337 | 1.0 | 3.0 | 0.00 | 0.00 | 0.00 | 86 | 1015.5 |
| 20260904181506 | 56 | 346 | 0.0 | 2.0 | 0.00 | 0.00 | 0.00 | 89 | 1015.6 |
| 20260904180006 | 56 | 19 | 1.0 | 4.0 | 0.00 | 0.00 | 0.00 | 88 | 1015.5 |
| 20260904174505 | 57 | 327 | 2.0 | 3.0 | 0.00 | 0.00 | 0.00 | 86 | 1015.6 |
| 20260904173005 | 57 | 302 | 2.0 | 4.0 | 0.00 | 0.00 | 0.00 | 86 | 1015.6 |
| 20260904171508 | 59 | 326 | 2.0 | 4.0 | 0.00 | 0.00 | 0.00 | 85 | 1015.4 |
| 20260904170003 | 59 | 316 | 1.0 | 3.0 | 0.00 | 0.00 | 0.00 | 85 | 1015.3 |
| 20260904164604 | 57 | 181 | 0.0 | 0.0 | 0.00 | 0.00 | 0.00 | 91 | 1015.4 |
| 20260904163104 | 55 | 182 | 0.0 | 5.0 | 0.00 | 0.00 | 0.00 | 91 | 1015.5 |
| 20260904161556 | 55 | 250 | 1.0 | 3.0 | 0.00 | 0.00 | 0.00 | 91 | 1015.6 |
| 20260904160056 | 55 | 177 | 1.0 | 5.0 | 0.00 | 0.00 | 0.00 | 91 | 1015.6 |
| 20260904154554 | 54 | 177 | 0.0 | 4.0 | 0.00 | 0.00 | 0.00 | 91 | 1015.5 |
| 20260904153102 | 54 | 174 | 1.0 | 4.0 | 0.00 | 0.00 | 0.00 | 91 | 1015.3 |
| 20260904151552 | 54 | 146 | 0.0 | 0.0 | 0.00 | 0.00 | 0.00 | 90 | 1015.3 |
| 20260904150050 | 54 | 146 | 0.0 | 0.0 | 0.00 | 0.00 | 0.00 | 90 | 1014.9 |
| 20260904144548 | 54 | 146 | 0.0 | 0.0 | 0.00 | 0.02 | 0.00 | 90 | 1014.7 |
| 20260904143046 | 54 | 146 | 0.0 | 0.0 | 0.00 | 0.02 | 0.00 | 89 | 1014.6 |
| 20260904141604 | 54 | 146 | 0.0 | 0.0 | 0.00 | 0.02 | 0.00 | 88 | 1014.3 |
| 20260904140043 | 54 | 146 | 0.0 | 1.0 | 0.00 | 0.02 | 0.00 | 87 | 1014.2 |
| 20260904134541 | 55 | 145 | 0.0 | 3.0 | 0.00 | 0.02 | 0.00 | 87 | 1014.1 |
| 20260904133043 | 55 | 119 | 1.0 | 5.0 | 0.00 | 0.02 | 0.00 | 86 | 1014.0 |
| 20260904131556 | 55 | 121 | 2.0 | 5.0 | 0.00 | 0.02 | 0.00 | 85 | 1013.9 |